Location: Newark
(50.2306°N, 14.0814°E)
Time: 01:30:12
(UTC+00:00)

N. Korean satellite - Pass Details

Date: 15 December 2019
Orbit: 454 x 507 km, 97.2° (Epoch: 23 January)

Event Time Altitude Azimuth Distance (km) Brightness Sun altitude
Rises 04:24:56 0° 21° (NNE) 2,538 10.4 -22.9°
Reaches altitude 10° 04:27:12 10° 33° (NNE) 1,644 9.5 -22.6°
Maximum altitude 04:30:19 29° 95° (E) 878 8.5 -22.1°
Drops below altitude 10° 04:33:23 10° 158° (SSE) 1,608 9.6 -21.6°
Sets 04:35:35 0° 170° (S) 2,471 10.4 -21.2°
